Torna al catalogo

CZ-6A DEB

AttivoSSO
NORAD 54439·DEBRIS·🇨🇳 China

Lanciato Nov 11, 2022 da Taiyuan Satellite Launch Center

Loading…

Prossimi Passaggi (prossime 24 ore)

TLE

AggiornatoSource: Space-Track

Epoca: Sep 14, 2026, 07:19 UTC

1 54439U 22151FP  26257.30555526 -.00000170  00000-0 -11062-3 0  9992
2 54439  99.0376 202.6490 0201554 302.9677  55.2239 13.77040634192648

Traccia CZ-6A DEB in tempo reale con AllMySat

Download on the App Store